�������l�o���
Date,Time,MP-1(��Sv/h),MP-2(��Sv/h),MP-3(��Sv/h),MP-4(��Sv/h),MP-5(��Sv/h),MP-6(��Sv/h),MP-7(��Sv/h),����,����(m/s),���J
2014/10/31,00:00,0.621,0.429,0.661,0.598,0.592,0.275,0.242,��쐼,5.0,��
2014/10/31,00:10,0.623,0.432,0.660,0.599,0.593,0.276,0.242,�쐼,3.8,��
2014/10/31,00:20,0.622,0.431,0.660,0.600,0.591,0.274,0.242,�쐼,2.6,��
2014/10/31,00:30,0.622,0.430,0.660,0.598,0.592,0.275,0.241,�쐼,3.1,��
2014/10/31,00:40,0.622,0.430,0.660,0.598,0.590,0.275,0.243,�쐼,4.3,��
2014/10/31,00:50,0.623,0.430,0.660,0.599,0.590,0.276,0.242,�쐼,3.6,��
2014/10/31,01:00,0.624,0.430,0.661,0.598,0.592,0.275,0.241,�쐼,3.8,��
2014/10/31,01:10,0.621,0.429,0.660,0.598,0.592,0.274,0.242,�쐼,3.5,��
2014/10/31,01:20,0.622,0.430,0.660,0.598,0.592,0.274,0.241,�쐼,4.5,��
2014/10/31,01:30,0.621,0.430,0.659,0.598,0.591,0.274,0.242,�쐼,4.4,��
2014/10/31,01:40,0.622,0.431,0.659,0.598,0.590,0.274,0.241,�쐼,4.7,��
2014/10/31,01:50,0.622,0.431,0.661,0.597,0.592,0.274,0.242,�쐼,3.5,��
2014/10/31,02:00,0.620,0.430,0.662,0.598,0.592,0.275,0.242,�쐼,3.3,��
2014/10/31,02:10,0.622,0.431,0.660,0.599,0.592,0.275,0.241,��쐼,3.6,��
2014/10/31,02:20,0.621,0.430,0.660,0.599,0.591,0.274,0.241,�쐼,3.6,��
2014/10/31,02:30,0.622,0.430,0.661,0.596,0.592,0.275,0.242,��쐼,3.3,��
2014/10/31,02:40,0.621,0.432,0.659,0.598,0.591,0.274,0.241,��쐼,4.4,��
2014/10/31,02:50,0.622,0.432,0.662,0.597,0.591,0.275,0.242,��쐼,5.0,��
2014/10/31,03:00,0.623,0.432,0.660,0.600,0.591,0.274,0.242,��쐼,4.7,��
2014/10/31,03:10,0.622,0.430,0.660,0.599,0.590,0.274,0.241,��쐼,4.2,��
2014/10/31,03:20,0.621,0.430,0.661,0.597,0.591,0.274,0.241,��쐼,4.2,��
2014/10/31,03:30,0.623,0.431,0.659,0.597,0.591,0.274,0.242,�쐼,4.5,��
2014/10/31,03:40,0.622,0.430,0.660,0.599,0.591,0.273,0.243,�쐼,4.2,��
2014/10/31,03:50,0.621,0.431,0.661,0.598,0.591,0.274,0.241,�쐼,4.1,��
2014/10/31,04:00,0.622,0.431,0.661,0.598,0.592,0.274,0.241,�쐼,4.5,��
2014/10/31,04:10,0.622,0.430,0.661,0.597,0.591,0.274,0.241,��쐼,4.6,��
2014/10/31,04:20,0.622,0.430,0.660,0.598,0.591,0.275,0.240,�쐼,4.4,��
2014/10/31,04:30,0.621,0.430,0.660,0.599,0.591,0.275,0.243,�쐼,4.9,��
2014/10/31,04:40,0.622,0.431,0.660,0.599,0.592,0.275,0.241,�쐼,4.5,��
2014/10/31,04:50,0.622,0.431,0.659,0.599,0.591,0.274,0.243,�쐼,3.8,��
2014/10/31,05:00,0.621,0.431,0.660,0.598,0.591,0.273,0.243,�쐼,5.3,��
2014/10/31,05:10,0.622,0.432,0.660,0.598,0.592,0.274,0.242,�쐼,4.2,��
2014/10/31,05:20,0.623,0.432,0.660,0.598,0.592,0.275,0.239,�쐼,3.5,��
2014/10/31,05:30,0.624,0.430,0.662,0.599,0.593,0.274,0.242,��쐼,3.6,��
2014/10/31,05:40,0.622,0.431,0.662,0.598,0.592,0.274,0.241,��쐼,3.6,��
2014/10/31,05:50,0.621,0.431,0.660,0.598,0.593,0.274,0.241,��쐼,4.3,��
2014/10/31,06:00,0.621,0.431,0.660,0.598,0.593,0.274,0.241,��쐼,5.3,��
2014/10/31,06:10,0.621,0.431,0.660,0.598,0.591,0.273,0.241,��쐼,4.2,��
2014/10/31,06:20,0.620,0.431,0.661,0.599,0.593,0.273,0.240,�쐼,3.1,��
2014/10/31,06:30,0.621,0.430,0.660,0.599,0.591,0.274,0.240,�쐼,3.9,��
2014/10/31,06:40,0.621,0.431,0.660,0.600,0.592,0.273,0.241,�쐼,3.2,��
2014/10/31,06:50,0.622,0.430,0.661,0.599,0.592,0.275,0.242,�쐼,3.1,��
2014/10/31,07:00,0.622,0.432,0.662,0.598,0.593,0.273,0.241,�쐼,2.6,��
2014/10/31,07:10,0.622,0.430,0.661,0.599,0.592,0.274,0.240,��쐼,2.2,��
2014/10/31,07:20,0.622,0.431,0.663,0.598,0.592,0.273,0.241,�쐼,3.3,��
2014/10/31,07:30,0.622,0.433,0.662,0.597,0.593,0.274,0.241,�쐼,3.0,��
2014/10/31,07:40,0.622,0.430,0.659,0.599,0.592,0.275,0.241,�쐼,3.4,��
2014/10/31,07:50,0.621,0.432,0.661,0.597,0.592,0.274,0.242,�쐼,4.0,��
2014/10/31,08:00,0.622,0.433,0.661,0.600,0.592,0.273,0.239,�쐼,4.4,��
2014/10/31,08:10,0.621,0.432,0.660,0.599,0.592,0.274,0.241,�쐼,3.3,��
2014/10/31,08:20,0.622,0.431,0.662,0.601,0.593,0.274,0.242,��쐼,2.5,��
2014/10/31,08:30,0.623,0.431,0.661,0.602,0.593,0.276,0.240,��쐼,2.1,��
2014/10/31,08:40,0.622,0.432,0.663,0.602,0.592,0.274,0.239,��쐼,1.8,��
2014/10/31,08:50,0.623,0.432,0.661,0.602,0.593,0.272,0.238,�쐼,1.3,��
2014/10/31,09:00,0.623,0.432,0.662,0.602,0.594,0.274,0.241,��,0.6,��
2014/10/31,09:10,0.624,0.433,0.663,0.605,0.594,0.272,0.241,��쓌,1.9,��
2014/10/31,09:20,0.624,0.434,0.662,0.606,0.595,0.274,0.241,�쓌,2.0,��
2014/10/31,09:30,0.623,0.435,0.661,0.608,0.594,0.273,0.241,�쓌,2.5,��
2014/10/31,09:40,0.623,0.433,0.663,0.610,0.595,0.273,0.243,�쓌,2.4,��
2014/10/31,09:50,0.624,0.435,0.662,0.611,0.596,0.274,0.242,�쓌,1.9,��
2014/10/31,10:00,0.628,0.434,0.663,0.611,0.594,0.275,0.241,�쓌,1.7,��
2014/10/31,10:10,0.626,0.436,0.663,0.613,0.597,0.275,0.242,�쓌,1.8,��
2014/10/31,10:20,0.626,0.435,0.662,0.614,0.597,0.274,0.242,�쓌,1.0,��
2014/10/31,10:30,0.628,0.437,0.662,0.614,0.597,0.274,0.242,��,1.8,��
2014/10/31,10:40,0.626,0.437,0.661,0.614,0.598,0.275,0.242,��,1.4,��
2014/10/31,10:50,0.630,0.436,0.664,0.617,0.599,0.275,0.244,���k��,1.4,��
2014/10/31,11:00,0.629,0.436,0.663,0.617,0.601,0.275,0.241,��,1.7,��
2014/10/31,11:10,0.631,0.438,0.664,0.615,0.600,0.275,0.241,���k��,1.6,��
2014/10/31,11:20,0.629,0.437,0.664,0.616,0.600,0.275,0.243,�k��,2.3,��
2014/10/31,11:30,0.630,0.437,0.665,0.616,0.602,0.275,0.242,���k��,1.3,��
2014/10/31,11:40,0.631,0.438,0.664,0.617,0.599,0.274,0.241,���k��,1.2,��
2014/10/31,11:50,0.630,0.438,0.666,0.616,0.600,0.275,0.242,���k��,1.3,��
2014/10/31,12:00,0.632,0.438,0.665,0.615,0.598,0.275,0.243,���k��,1.8,��
2014/10/31,12:10,0.633,0.436,0.664,0.615,0.599,0.275,0.242,���쓌,0.7,��
2014/10/31,12:20,0.632,0.438,0.665,0.615,0.599,0.274,0.240,�쓌,1.0,��
2014/10/31,12:30,0.633,0.436,0.667,0.615,0.597,0.274,0.241,��쓌,1.2,��
2014/10/31,12:40,0.629,0.437,0.668,0.614,0.596,0.276,0.242,�쓌,1.8,��
2014/10/31,12:50,0.629,0.436,0.669,0.614,0.596,0.274,0.242,��쓌,1.9,��
2014/10/31,13:00,0.628,0.438,0.668,0.614,0.596,0.275,0.242,�쓌,2.3,��
2014/10/31,13:10,0.629,0.436,0.669,0.614,0.597,0.276,0.243,��쓌,3.3,��
2014/10/31,13:20,0.629,0.436,0.669,0.615,0.598,0.275,0.243,��쓌,2.9,��
2014/10/31,13:30,0.633,0.436,0.672,0.615,0.597,0.274,0.239,��쓌,3.6,��
2014/10/31,13:40,0.634,0.436,0.671,0.614,0.597,0.275,0.241,�쓌,2.6,��
2014/10/31,13:50,0.632,0.435,0.669,0.614,0.596,0.275,0.243,��쓌,2.5,��
2014/10/31,14:00,0.631,0.436,0.668,0.615,0.597,0.274,0.242,��,2.5,��
2014/10/31,14:10,0.632,0.435,0.667,0.614,0.597,0.273,0.241,��,4.7,��
2014/10/31,14:20,0.627,0.435,0.666,0.614,0.596,0.271,0.244,��,5.3,��
2014/10/31,14:30,0.627,0.436,0.668,0.614,0.595,0.271,0.241,��,5.1,��
2014/10/31,14:40,0.626,0.435,0.666,0.615,0.594,0.273,0.243,��,5.6,��
2014/10/31,14:50,0.630,0.435,0.667,0.614,0.596,0.274,0.244,��쐼,4.4,��
2014/10/31,15:00,0.627,0.436,0.666,0.613,0.595,0.275,0.242,��,4.5,��
2014/10/31,15:10,0.629,0.435,0.667,0.615,0.595,0.273,0.242,��,6.1,��
2014/10/31,15:20,0.628,0.433,0.666,0.614,0.595,0.275,0.243,��쐼,5.8,��
2014/10/31,15:30,0.627,0.435,0.665,0.612,0.595,0.273,0.241,��쐼,4.6,��
2014/10/31,15:40,0.626,0.434,0.666,0.609,0.594,0.273,0.243,��쐼,2.5,��
2014/10/31,15:50,0.624,0.435,0.664,0.608,0.594,0.275,0.242,�k,1.9,��
2014/10/31,16:00,0.626,0.433,0.666,0.611,0.595,0.274,0.241,-,CALM,��
2014/10/31,16:10,0.627,0.435,0.666,0.610,0.596,0.276,0.244,-,CALM,��
2014/10/31,16:20,0.626,0.435,0.663,0.607,0.595,0.274,0.242,�k��,1.0,��
2014/10/31,16:30,0.624,0.435,0.663,0.608,0.594,0.273,0.242,�k,1.7,��
2014/10/31,16:40,0.622,0.434,0.664,0.609,0.594,0.276,0.242,���k��,1.3,��
2014/10/31,16:50,0.625,0.432,0.662,0.609,0.595,0.273,0.244,�k�k��,1.7,��
2014/10/31,17:00,0.625,0.433,0.662,0.606,0.595,0.276,0.242,�k�k��,1.6,��
2014/10/31,17:10,0.622,0.432,0.662,0.605,0.592,0.275,0.244,��,1.0,��
2014/10/31,17:20,0.621,0.433,0.663,0.606,0.593,0.275,0.243,�쐼,0.5,��
2014/10/31,17:30,0.620,0.433,0.662,0.602,0.592,0.276,0.243,-,CALM,��
2014/10/31,17:40,0.619,0.432,0.664,0.604,0.593,0.276,0.242,-,CALM,��
2014/10/31,17:50,0.622,0.432,0.658,0.601,0.593,0.276,0.244,��,0.8,��
2014/10/31,18:00,0.621,0.430,0.661,0.601,0.590,0.275,0.241,��쐼,1.8,��
2014/10/31,18:10,0.622,0.432,0.660,0.602,0.591,0.275,0.244,��쐼,3.1,��
2014/10/31,18:20,0.621,0.430,0.662,0.601,0.591,0.275,0.242,�쐼,3.3,��
2014/10/31,18:30,0.622,0.430,0.661,0.598,0.590,0.275,0.244,��쐼,2.9,��
2014/10/31,18:40,0.621,0.430,0.659,0.600,0.590,0.274,0.242,��쐼,3.6,��
2014/10/31,18:50,0.620,0.430,0.661,0.600,0.590,0.276,0.244,��쐼,2.9,��
2014/10/31,19:00,0.621,0.432,0.661,0.598,0.589,0.274,0.242,��쐼,3.6,��
2014/10/31,19:10,0.621,0.432,0.661,0.597,0.591,0.274,0.242,��쐼,3.9,��
2014/10/31,19:20,0.622,0.430,0.662,0.599,0.592,0.275,0.242,��쐼,2.7,��
2014/10/31,19:30,0.623,0.432,0.659,0.599,0.590,0.275,0.243,��쐼,0.7,��
2014/10/31,19:40,0.623,0.430,0.659,0.601,0.590,0.276,0.243,�k�k��,0.6,��
2014/10/31,19:50,0.621,0.432,0.660,0.599,0.592,0.274,0.243,�k�k��,1.8,��
2014/10/31,20:00,0.622,0.431,0.660,0.601,0.592,0.276,0.244,�k,3.0,��
2014/10/31,20:10,0.622,0.432,0.661,0.600,0.593,0.275,0.243,�k,2.8,��
2014/10/31,20:20,0.622,0.432,0.660,0.600,0.593,0.275,0.243,�k�k��,2.5,��
2014/10/31,20:30,0.622,0.433,0.662,0.598,0.592,0.276,0.243,�k,3.7,��
2014/10/31,20:40,0.623,0.432,0.660,0.599,0.590,0.276,0.244,�k��,2.0,��
2014/10/31,20:50,0.622,0.431,0.660,0.600,0.592,0.274,0.243,�k�k��,2.8,��
2014/10/31,21:00,0.622,0.432,0.660,0.599,0.593,0.276,0.243,�k��,1.9,��
2014/10/31,21:10,0.622,0.433,0.661,0.600,0.593,0.276,0.243,�k,2.8,��
2014/10/31,21:20,0.624,0.432,0.661,0.601,0.592,0.275,0.244,�k�k��,2.2,��
2014/10/31,21:30,0.623,0.431,0.661,0.597,0.593,0.275,0.244,�k,2.6,��
2014/10/31,21:40,0.622,0.432,0.662,0.599,0.591,0.276,0.243,�k�k��,2.2,��
2014/10/31,21:50,0.622,0.431,0.662,0.600,0.593,0.275,0.245,�k,2.2,��
2014/10/31,22:00,0.624,0.431,0.663,0.599,0.593,0.276,0.243,�k,1.8,��
2014/10/31,22:10,0.621,0.433,0.662,0.601,0.594,0.275,0.244,�k,2.5,��
2014/10/31,22:20,0.621,0.433,0.661,0.600,0.592,0.276,0.243,�k,2.2,��
2014/10/31,22:30,0.621,0.432,0.662,0.600,0.591,0.274,0.243,�k,2.5,��
2014/10/31,22:40,0.622,0.432,0.663,0.599,0.593,0.276,0.242,�k,2.5,��
2014/10/31,22:50,0.621,0.432,0.660,0.600,0.592,0.275,0.243,�k,2.8,��
2014/10/31,23:00,0.622,0.431,0.662,0.600,0.593,0.276,0.242,�k,1.4,��
2014/10/31,23:10,0.621,0.432,0.662,0.598,0.593,0.275,0.243,�k�k��,2.4,��
2014/10/31,23:20,0.622,0.431,0.662,0.602,0.591,0.277,0.243,�k,2.2,��
2014/10/31,23:30,0.622,0.431,0.663,0.600,0.593,0.275,0.243,�k,2.5,��
2014/10/31,23:40,0.621,0.431,0.661,0.600,0.592,0.276,0.243,�k�k��,3.3,��
2014/10/31,23:50,0.622,0.432,0.662,0.600,0.591,0.276,0.243,�k,3.1,��
